Location: Schommer Observatory
(40.5200°N, 74.4500°W)
Time: 23:11:42
(UTC-05:00)

OTV 5 (USA 277) - Pass Details

Date: 12 November 2017
Orbit: 404 x 417 km, 43.0° (Epoch: 07 September)

Event Time Altitude Azimuth Distance (km) Brightness Sun altitude
Exits shadow 05:17:49 41° 286° (WNW) 599 ? -16.0°
Maximum altitude 05:18:44 63° 350° (N) 453 ? -15.8°
Drops below altitude 10° 05:22:00 10° 72° (ENE) 1,456 ? -15.2°
Sets 05:24:07 0° 76° (ENE) 2,317 ? -14.8°
